Tracking 31011 objects as of 13-Jul-2025
HD Live streaming from Space Station
objects crossing your sky now

CZ-6A DEB

Track CZ-6A DEB now!
10-day predictions


NORAD ID: 55888
Int'l Code: 2022-151AAL
Perigee: 620.1 km
Apogee: 816.2 km
Inclination: 98.5 °
Period: 99.0 minutes
Semi major axis: 7089 km
RCS: Unknown
Launch date: November 11, 2022
Source: People's Republic of China (PRC)
Launch site: Taiyaun Space Center, China (TSC)

Note: This is SATELLITE DEBRIS
Your satellite tracking list
Your tracking list is empty




NASA's NSSDC Master Catalog

Two Line Element Set (TLE):
1 55888U 22151AAL 25192.97752199  .00002139  00000-0  45356-3 0  9994
2 55888  98.4753 210.7207 0138274 265.4139  93.1252 14.54498837134931
Source of the keplerian elements: AFSPC